x

Portage Canal, Mi (pclm4) Weather Station

7:40pm - Thu 27th Apr 2017 All times are CDT. -5 hours from GMT.

  • Wind
    17mph, 30mph gusts
  • Air Temp 30°f
  • Sea Pressure 1001.4mb
  • Portage Canal, Mi
  • Portage Canal, Mi

More Historic Weather Station data

Upgrade to MSW Pro to gain access to the past 30 days of data for over 8000 Wavebouys and Weather Stations around the globe.

Join Pro

Comparision Forecast

View Surf forecast
   
Thu 04/27 7:40pm 17 30 mph 1001.4mb 30f
7:30pm 20 31 mph 1001mb 30f
7:20pm 18 31 mph 1001mb 30f
7:10pm 24 31 mph 1000.7mb 30f
7:08pm 18 29 mph 1000.7mb 30f
7:00pm 17 26 mph 1000.7mb 30f
6:40pm 17 26 mph 1000.3mb 29f
6:30pm 20 26 mph 1000.3mb 29f
6:20pm 18 26 mph 1000mb 29f
6:10pm 21 26 mph 1000mb 29f
6:00pm 21 28 mph 1000mb 29f
5:40pm 18 26 mph 999.7mb 28f
5:30pm 22 29 mph 999.7mb 28f
5:20pm 22 30 mph 999.3mb 28f
5:16pm 24 30 mph 999.3mb 29f
5:10pm 22 28 mph 999mb 29f
5:00pm 20 26 mph 999mb 29f
4:40pm 22 25 mph 998.6mb 28f
4:30pm 21 25 mph 998.6mb 28f
4:20pm 22 25 mph 998.3mb 29f
4:10pm 22 26 mph 998.3mb 29f
4:00pm 23 28 mph 998mb 28f
3:40pm 21 26 mph 998mb 28f
3:30pm 20 25 mph 998mb 28f
3:20pm 22 28 mph 997.6mb 28f
3:10pm 21 26 mph 997.6mb 28f
3:00pm 22 25 mph 997.6mb 28f
2:40pm 20 25 mph 997.6mb 28f
2:30pm 23 26 mph 997.6mb 28f
2:20pm 20 26 mph 997.3mb 28f
2:10pm 22 25 mph 997.3mb 28f
2:00pm 22 24 mph 997.3mb 28f
1:40pm 18 23 mph 997.3mb 28f
1:30pm 17 21 mph 997mb 29f
1:20pm 17 21 mph 997mb 29f
1:10pm 16 20 mph 997mb 29f
1:00pm 17 20 mph 997mb 29f
12:40pm 15 18 mph 997mb 29f
12:30pm 15 18 mph 997mb 29f
12:20pm 17 18 mph 997mb 29f
12:10pm 15 21 mph 997mb 29f
12:00pm 16 21 mph 996.6mb 28f
11:40am 16 21 mph 996.6mb 28f
11:30am 17 21 mph 996.6mb 28f
11:20am 14 20 mph 996.6mb 29f
11:10am 15 22 mph 996.6mb 29f
11:00am 18 22 mph 995.9mb 29f
10:40am 16 21 mph 996.6mb 29f
10:30am 17 23 mph 996.6mb 29f
10:20am 18 23 mph 996.6mb 29f
10:10am 17 24 mph 996.6mb 29f
10:00am 20 25 mph 996.6mb 29f
9:40am 18 25 mph 997mb 29f
9:30am 17 26 mph 997mb 29f
9:20am 18 24 mph 997mb 29f
9:10am 18 23 mph 997.3mb 29f
9:00am 20 23 mph 997.3mb 29f
8:40am 20 23 mph 997.3mb 30f
8:30am 18 23 mph 998mb 30f
8:20am 18 23 mph 998mb 30f
8:10am 20 22 mph 998mb 29f
8:00am 18 22 mph 998.3mb 30f
7:40am 20 23 mph 998.3mb 30f
7:30am 17 22 mph 998.6mb 30f
7:20am 18 22 mph 998.6mb 30f
7:10am 17 23 mph 998.6mb 30f
7:00am 17 22 mph 998.6mb 30f
6:40am 17 22 mph 999.3mb 29f
6:30am 20 22 mph 999.3mb 29f
6:20am 17 22 mph 999.7mb 29f
6:10am 16 22 mph 999.7mb 29f
6:00am 18 21 mph 1000mb 29f
5:40am 18 22 mph 1000mb 29f
5:30am 17 22 mph 999.7mb 29f
5:20am 17 22 mph 999.7mb 30f
5:10am 20 23 mph 999.7mb 30f
5:00am 18 25 mph 999.7mb 30f
4:40am 21 24 mph 999.7mb 30f
4:30am 20 24 mph 999.7mb 30f
4:20am 18 24 mph 1000mb 30f
4:10am 20 24 mph 1000mb 30f
4:00am 22 24 mph 1000mb 30f
3:40am 17 23 mph 1000.7mb 31f
3:30am 20 22 mph 1000.7mb 31f
3:20am 18 24 mph 1000.7mb 31f
3:10am 20 22 mph 1001mb 31f
3:00am 18 23 mph 1001mb 31f
2:40am 18 23 mph 1001mb 30f
2:30am 21 24 mph 1001mb 31f
2:20am 20 24 mph 1000.7mb 31f
2:10am 22 25 mph 1001mb 31f
2:00am 20 25 mph 1001mb 31f
1:40am 21 25 mph 1001.7mb 31f
1:30am 21 24 mph 1001.7mb 31f
1:20am 18 24 mph 1001.7mb 31f
1:10am 20 24 mph 1001.7mb 31f
1:00am 18 23 mph 1002mb 31f
12:40am 20 24 mph 1001.7mb 31f
12:30am 22 26 mph 1001.4mb 31f
12:20am 21 25 mph 1001.4mb 31f
12:10am 21 26 mph 1001mb 31f
12:00am 22 26 mph 1001mb 31f
Wed 04/26 11:40pm 18 26 mph 1001.4mb 31f
11:30pm 20 25 mph 1001.4mb 31f
11:20pm 18 24 mph 1001.7mb 31f
11:10pm 22 26 mph 1001.7mb 31f
11:00pm 21 25 mph 1001.7mb 31f
10:40pm 22 26 mph 1001.7mb 31f
10:30pm 20 24 mph 1002mb 32f
10:20pm 21 24 mph 1002mb 32f
10:10pm 20 25 mph 1002mb 32f
10:00pm 21 24 mph 1002mb 32f
9:40pm 21 25 mph 1002.4mb 32f
9:30pm 20 26 mph 1001.7mb 32f
9:20pm 25 30 mph 1001mb 32f
9:10pm 23 30 mph 1001mb 32f
9:00pm 22 29 mph 1001mb 32f
8:40pm 23 29 mph 1000.7mb 33f
8:30pm 24 29 mph 1000.3mb 33f
8:27pm 24 29 mph 1000.3mb 33f
8:20pm 23 29 mph 1000.3mb 33f
8:10pm 25 29 mph 1000.3mb 33f
8:00pm 17 28 mph 1000.3mb 33f
7:40pm 22 30 mph 1000mb 33f
7:30pm 22 29 mph 1000mb 33f
7:27pm 17 29 mph 999.7mb 33f
7:20pm 15 25 mph 999.7mb 33f
7:10pm 14 24 mph 1000mb 33f
7:00pm 17 28 mph 1000mb 33f
6:40pm 16 25 mph 999.7mb 33f
6:30pm 18 29 mph 999.7mb 33f
6:20pm 13 26 mph 999.7mb 33f
6:10pm 17 28 mph 999.7mb 33f
6:00pm 22 31 mph 999.7mb 34f
5:40pm 18 32 mph 999mb 34f
5:30pm 28 36 mph 999mb 34f
5:20pm 26 31 mph 999mb 34f
5:10pm 25 32 mph 999mb 34f
5:00pm 24 30 mph 999mb 34f
4:40pm 20 26 mph 999mb 35f
4:30pm 16 23 mph 999.7mb 34f
4:20pm 17 22 mph 999.3mb 35f
4:10pm 17 22 mph 999.3mb 35f
4:00pm 15 21 mph 999mb 35f
3:40pm 11 22 mph 999mb 34f
3:30pm 9 18 mph 999mb 34f
3:20pm 10 15 mph 998.6mb 34f
3:10pm 11 18 mph 998.6mb 35f
3:00pm 13 21 mph 998.6mb 34f
2:40pm 11 17 mph 998.6mb 34f
2:30pm 13 20 mph 999mb 34f
2:20pm 9 16 mph 999.7mb 34f
2:10pm 10 21 mph 999mb 34f
2:00pm 17 23 mph 999mb 34f
1:40pm 11 20 mph 999.7mb 34f
1:30pm 14 21 mph 999.7mb 35f
1:20pm 14 21 mph 999.3mb 35f
1:10pm 13 18 mph 999.7mb 35f
1:00pm 11 18 mph 999.7mb 34f
12:40pm 13 21 mph 1000mb 35f
12:30pm 11 20 mph 1000.3mb 34f
12:20pm 15 18 mph 1000.7mb 34f
12:10pm 14 18 mph 1000.7mb 34f
12:00pm 14 20 mph 1001mb 34f
11:40am 15 17 mph 1001.4mb 34f
11:30am 11 16 mph 1001.4mb 34f
11:20am 10 16 mph 1001.4mb 35f
11:10am 9 14 mph 1001.7mb 35f
11:00am 9 16 mph 1002mb 34f
10:40am 9 13 mph 1002mb 34f
10:30am 8 15 mph 1002.4mb 34f
10:20am 9 15 mph 1002.4mb 34f
10:10am 9 15 mph 1002.4mb 34f
10:00am 8 16 mph 1002.4mb 33f
9:40am 9 16 mph 1002.7mb 33f
9:30am 11 22 mph 1002.7mb 33f
9:20am 13 18 mph 1003mb 33f
9:10am 10 20 mph 1003.4mb 33f
9:00am 11 20 mph 1003.4mb 33f
8:40am 14 21 mph 1003.7mb 34f
8:30am 13 20 mph 1003.7mb 33f
8:20am 9 15 mph 1004.1mb 33f
8:10am 10 15 mph 1004.4mb 33f
8:00am 10 21 mph 1004.1mb 33f
7:40am 11 21 mph 1004.1mb 33f
7:30am 14 21 mph 1003.7mb 33f
7:20am 16 24 mph 1004.1mb 34f
7:10am 14 21 mph 1004.4mb 34f
7:00am 11 20 mph 1004.7mb 33f
6:40am 11 17 mph 1005.1mb 33f
6:30am 9 17 mph 1005.1mb 33f
6:20am 14 21 mph 1004.7mb 33f
6:10am 10 18 mph 1004.7mb 33f
6:00am 11 18 mph 1005.1mb 33f
5:40am 13 21 mph 1005.1mb 33f
5:30am 11 20 mph 1004.7mb 33f
5:20am 9 20 mph 1004.7mb 33f
5:10am 13 20 mph 1005.1mb 33f
5:00am 13 21 mph 1005.4mb 33f
4:40am 11 20 mph 1005.8mb 33f
4:30am 10 18 mph 1006.1mb 33f
4:20am 9 18 mph 1006.4mb 33f
4:10am 11 22 mph 1006.4mb 33f
4:00am 11 20 mph 1006.4mb 33f
3:40am 13 21 mph 1006.8mb 33f
3:30am 11 20 mph 1007.1mb 33f
3:20am 9 18 mph 1007.1mb 33f
3:10am 11 20 mph 1007.1mb 33f
3:00am 16 26 mph 1007.5mb 33f
2:40am 15 25 mph 1007.1mb 33f
2:30am 17 26 mph 1007.1mb 33f
2:20am 13 25 mph 1007.1mb 33f
2:10am 16 31 mph 1007.1mb 33f
2:00am 17 28 mph 1007.1mb 34f
1:46am 17 29 mph 1007.8mb 34f
1:40am 14 26 mph 1008.1mb 34f
1:30am 15 26 mph 1008.5mb 34f
1:20am 10 22 mph 1008.8mb 34f
1:10am 11 23 mph 1008.8mb 34f
1:00am 11 24 mph 1009.1mb 34f
12:40am 10 20 mph 1009.1mb 34f
12:30am 11 23 mph 1008.8mb 34f
12:20am 9 22 mph 1008.8mb 34f
12:10am 16 26 mph 1008.8mb 34f
12:00am 15 28 mph 1008.8mb 35f
Tue 04/25 11:40pm 17 30 mph 1008.5mb 35f
11:33pm 14 30 mph 1008.1mb 35f
11:30pm 14 28 mph 1008.5mb 35f
11:20pm 16 28 mph 1008.5mb 35f
11:10pm 20 28 mph 1008.1mb 35f
11:00pm 18 31 mph 1008.1mb 35f
10:40pm 20 32 mph 1007.8mb 36f
10:31pm 14 29 mph 1007.8mb 36f
10:30pm 14 31 mph 1008.1mb 36f
10:20pm 21 33 mph 1007.8mb 36f
10:10pm 20 36 mph 1008.1mb 37f
10:00pm 25 34 mph 1008.1mb 37f
9:40pm 23 34 mph 1007.8mb 37f
9:30pm 21 32 mph 1007.5mb 37f
9:25pm 21 32 mph 1007.1mb 37f
9:20pm 20 34 mph 1007.5mb 37f
9:10pm 21 34 mph 1007.1mb 38f
9:00pm 23 34 mph 1007.1mb 38f
8:40pm 26 32 mph 1006.8mb 39f
8:30pm 16 30 mph 1006.8mb 39f
8:24pm 17 29 mph 1006.4mb 39f
8:20pm 18 31 mph 1006.4mb 39f
8:10pm 23 30 mph 1006.4mb 39f
8:00pm 22 29 mph 1006.1mb 39f
7:40pm 20 30 mph 1005.8mb 39f
7:30pm 24 32 mph 1005.4mb 39f
7:21pm 16 32 mph 1005.4mb 39f
7:20pm 16 28 mph 1005.4mb 39f
7:10pm 22 29 mph 1005.4mb 39f
7:00pm 17 28 mph 1005.1mb 40f
6:40pm 21 31 mph 1005.1mb 39f
6:30pm 23 30 mph 1005.1mb 39f
6:20pm 23 30 mph 1004.7mb 39f
6:10pm 23 29 mph 1004.7mb 39f
6:00pm 25 29 mph 1004.4mb 40f
5:59pm 24 29 mph 1004.4mb 40f
5:40pm 25 29 mph 1004.4mb 40f
5:30pm 23 30 mph 1004.4mb 40f
5:20pm 23 29 mph 1004.4mb 40f
5:10pm 22 28 mph 1004.4mb 40f
5:00pm 23 29 mph 1004.4mb 41f
4:58pm 22 29 mph 1004.4mb 41f
4:40pm 18 26 mph 1004.4mb 41f
4:30pm 22 26 mph 1004.4mb 41f
4:20pm 18 25 mph 1004.4mb 42f
4:10pm 17 20 mph 1004.4mb 43f
4:00pm 13 18 mph 1004.7mb 43f
3:40pm 11 16 mph 1004.7mb 45f
3:30pm 10 20 mph 1004.4mb 45f
3:20pm 11 16 mph 1004.4mb 44f
3:10pm 14 17 mph 1004.4mb 46f
3:00pm 10 16 mph 1004.1mb 46f
2:40pm 8 14 mph 1003.7mb 48f
2:30pm 10 13 mph 1003.7mb 51f
2:20pm 10 13 mph 1003.7mb 53f
2:10pm 7 11 mph 1003.7mb 52f
2:00pm 9 13 mph 1003.7mb 53f
1:40pm 10 14 mph 1003.7mb 51f
1:30pm 10 15 mph 1003.7mb 51f
1:20pm 10 13 mph 1003.7mb 50f
1:10pm 7 10 mph 1003.7mb 55f
1:00pm 8 11 mph 1004.1mb 50f
12:40pm 10 11 mph 1004.1mb 50f
12:30pm 5 10 mph 1004.4mb 50f
12:20pm 8 13 mph 1004.4mb 50f
12:10pm 6 10 mph 1004.4mb 52f
12:00pm 2 7 mph 1004.1mb 56f
11:40am 2 8 mph 1004.4mb 61f
11:30am 3 8 mph 1004.4mb 62f
11:20am 3 9 mph 1004.1mb 60f
11:10am 5 9 mph 1004.4mb 59f
11:00am 1 11 mph 1004.4mb 58f
10:40am  -  6 mph 1004.4mb 57f
10:30am 3 13 mph 1004.4mb 57f
10:20am 6 11 mph 1004.7mb 52f
10:10am 7 11 mph 1004.7mb 47f
10:00am 9 13 mph 1004.7mb 49f
9:40am 5 9 mph 1004.7mb 47f
9:30am 7 9 mph 1004.7mb 47f
9:20am 6 10 mph 1004.7mb 47f
9:10am 6 10 mph 1005.1mb 45f
9:00am 5 7 mph 1005.1mb 49f
8:40am 3 5 mph 1005.4mb 50f
8:30am 3 5 mph 1005.4mb 50f
8:20am 2 5 mph 1005.4mb 49f
8:10am 3 6 mph 1005.8mb 51f
8:00am  -  3 mph 1005.4mb 51f
7:40am 2 15 mph 1005.8mb 47f
7:30am 6 17 mph 1005.4mb 50f
7:20am 10 21 mph 1004.4mb 50f
7:10am 10 22 mph 1004.4mb 49f
7:00am 8 18 mph 1004.4mb 49f
6:40am 9 18 mph 1004.4mb 48f
6:30am 9 20 mph 1004.4mb 47f
6:20am 10 22 mph 1004.4mb 47f
6:10am 11 20 mph 1004.4mb 48f
6:00am 9 21 mph 1004.4mb 47f
5:50am 10 20 mph 1004.7mb 48f
5:40am 10 18 mph 1005.1mb 48f
5:30am 8 20 mph 1004.7mb 49f
5:20am 8 20 mph 1005.1mb 48f
5:10am 8 22 mph 1005.4mb 48f
5:00am 10 20 mph 1005.4mb 48f
4:40am 10 20 mph 1005.4mb 50f
4:30am 13 24 mph 1005.1mb 51f
4:20am 9 20 mph 1005.1mb 50f
4:10am 10 18 mph 1005.4mb 50f
4:00am 10 23 mph 1005.1mb 51f
3:40am 11 21 mph 1005.4mb 51f
3:30am 9 23 mph 1005.8mb 51f
3:20am 8 18 mph 1006.1mb 52f
3:10am 10 21 mph 1006.1mb 53f
3:00am 10 22 mph 1006.1mb 54f
2:40am 8 15 mph 1006.4mb 55f
2:30am 3 14 mph 1007.1mb 56f
2:20am 7 20 mph 1007.1mb 56f
2:10am 7 20 mph 1007.1mb 56f
2:00am 7 14 mph 1007.1mb 53f
1:40am 7 16 mph 1007.5mb 54f
1:30am 9 17 mph 1007.8mb 55f
1:20am 6 22 mph 1007.8mb 54f
1:10am 7 20 mph 1008.5mb 54f
1:00am 8 20 mph 1008.5mb 52f
12:40am 6 18 mph 1008.1mb 52f
12:30am 8 17 mph 1008.5mb 52f
12:20am 9 16 mph 1008.1mb 51f
12:10am 6 17 mph 1007.8mb 50f
12:00am 5 20 mph 1007.8mb 50f
Mon 04/24 11:40pm 9 22 mph 1007.1mb 52f
11:30pm 6 22 mph 1007.1mb 51f
11:20pm 8 20 mph 1007.1mb 51f
11:10pm 8 18 mph 1007.1mb 51f
11:00pm 9 20 mph 1007.1mb 51f
10:40pm 9 20 mph 1007.5mb 51f
10:30pm 8 20 mph 1007.5mb 50f
10:20pm 10 21 mph 1007.5mb 51f
10:10pm 9 20 mph 1007.1mb 51f
10:00pm 9 21 mph 1007.1mb 51f
9:40pm 9 16 mph 1007.1mb 50f
9:30pm 6 16 mph 1007.5mb 50f
9:20pm 8 21 mph 1007.8mb 49f
9:10pm 6 20 mph 1007.8mb 49f
9:00pm 10 16 mph 1007.8mb 48f
8:40pm 7 17 mph 1007.8mb 47f
8:30pm 7 17 mph 1007.8mb 46f
8:20pm 11 20 mph 1007.8mb 46f
8:10pm 9 20 mph 1007.5mb 45f
8:00pm 11 22 mph 1007.5mb 45f
7:40pm 9 24 mph 1007.5mb 45f
7:30pm 13 24 mph 1007.5mb 45f
7:20pm 9 22 mph 1007.8mb 45f
7:10pm 11 21 mph 1007.8mb 45f
7:00pm 11 22 mph 1007.8mb 46f
6:40pm 13 23 mph 1008.1mb 46f
6:30pm 13 24 mph 1007.8mb 47f
6:20pm 15 22 mph 1008.1mb 47f
6:10pm 11 29 mph 1008.1mb 47f
6:00pm 14 23 mph 1008.5mb 47f
5:40pm 10 28 mph 1009.1mb 47f
5:30pm 13 28 mph 1009.1mb 47f
5:20pm 10 25 mph 1009.1mb 47f
5:10pm 13 25 mph 1009.1mb 48f
5:00pm 13 25 mph 1009.5mb 48f
4:40pm 10 18 mph 1009.8mb 48f
4:30pm 5 23 mph 1010.2mb 48f
4:20pm 9 25 mph 1010.5mb 48f
4:10pm 10 25 mph 1010.5mb 48f
4:00pm 11 20 mph 1010.8mb 49f
3:40pm 11 20 mph 1011.5mb 49f
3:30pm 5 22 mph 1011.9mb 48f
3:20pm 13 21 mph 1011.9mb 48f
3:10pm 9 14 mph 1012.2mb 49f
3:00pm 8 21 mph 1012.5mb 47f
2:40pm 5 15 mph 1012.9mb 49f
2:30pm 10 16 mph 1012.9mb 47f
2:20pm 9 21 mph 1012.9mb 47f
2:10pm 11 18 mph 1012.9mb 46f
2:00pm 9 18 mph 1013.2mb 46f
1:40pm 8 20 mph 1013.9mb 44f
1:30pm 9 20 mph 1013.9mb 44f
1:20pm 11 24 mph 1014.2mb 43f
1:10pm 9 24 mph 1014.2mb 42f
1:00pm 14 22 mph 1014.6mb 43f
12:40pm 15 25 mph 1014.9mb 42f
12:30pm 14 28 mph 1014.9mb 42f
12:20pm 14 25 mph 1014.9mb 41f
12:10pm 16 29 mph 1014.9mb 41f
12:00pm 15 24 mph 1015.2mb 40f
11:41am 9 28 mph 1015.6mb 40f
11:40am 9 26 mph 1015.6mb 40f
11:30am 15 28 mph 1015.6mb 40f
11:20am 16 28 mph 1015.6mb 40f
11:10am 14 26 mph 1015.9mb 39f
11:00am 11 28 mph 1016.3mb 40f
10:41am 10 28 mph 1015.9mb 40f
10:40am 10 26 mph 1015.9mb 40f
10:30am 7 28 mph 1015.9mb 39f
10:20am 14 28 mph 1015.9mb 40f
10:10am 9 29 mph 1016.6mb 39f
10:00am 15 29 mph 1016.6mb 39f
9:40am 14 33 mph 1016.9mb 38f
9:30am 8 29 mph 1016.9mb 37f
9:20am 10 30 mph 1016.9mb 37f
9:15am 14 30 mph 1016.9mb 37f
9:10am 14 29 mph 1016.9mb 37f
9:00am 9 28 mph 1016.9mb 37f
8:40am 10 17 mph 1017.6mb 36f
8:30am 6 16 mph 1017.9mb 36f
8:20am 3 11 mph 1017.9mb 37f
8:10am 6 17 mph 1017.9mb 36f
8:00am 6 21 mph 1017.9mb 35f
7:40am 10 17 mph 1018.3mb 34f
7:30am 5 14 mph 1018.3mb 34f
7:20am 2 9 mph 1018.6mb 34f
7:10am 5 10 mph 1019mb 33f
7:00am 2 8 mph 1019mb 33f
6:40am 7 9 mph 1019mb 33f
6:30am 5 10 mph 1019mb 32f
6:20am 6 11 mph 1019.3mb 32f
6:10am 3 14 mph 1019mb 32f
6:00am 5 11 mph 1019.3mb 32f
5:40am 6 13 mph 1019mb 32f
5:30am 8 11 mph 1019.3mb 32f
5:20am 6 9 mph 1019.6mb 32f
5:10am 6 8 mph 1020mb 32f
5:00am 5 8 mph 1019.6mb 32f
4:40am 3 11 mph 1019.6mb 32f
4:30am 5 11 mph 1019.6mb 32f
4:20am 6 8 mph 1020mb 31f
4:10am 6 13 mph 1020.3mb 31f
4:00am 7 11 mph 1020mb 31f
3:40am 6 9 mph 1020mb 31f
3:30am 3 7 mph 1020.7mb 31f
3:20am 3 11 mph 1020.7mb 31f
3:10am 3 9 mph 1020.7mb 31f
3:00am 6 9 mph 1020.7mb 31f
2:40am 3 9 mph 1020.7mb 31f
2:30am 5 8 mph 1020.7mb 31f
2:20am 3 7 mph 1021.3mb 31f
2:10am 2 7 mph 1021.3mb 31f
2:00am 3 7 mph 1021.3mb 31f
1:40am 5 8 mph 1021.3mb 31f